Latest Weather Observations for Maria Island

IDT60801

Issued at 2:35 am EST Wednesday 3 September 2014 (issued every 30 minutes, with the page automatically refreshed every 10 minutes)

About weather observations | Map of weather stations | Latest weather observations for TAS | Other Formats
Station Details ID: 092124 Name: MARIA ISLAND (POINT LESUEUR) Lat: -42.66 Lon: 148.02 Height: 28.0 m
Data from the previous 72 hours. | See also: Recent months at Maria Island
Date/Time
EST
Temp
°C
App
Temp
°C
Dew
Point
Rel
Hum
%
Delta-T
°C
Wind Press
QNH
hPa
Press
MSL
hPa
Rain
since 9 am
mm
Dir
 
Spd
km/h
Gust
km/h
Spd
kts
Gust
kts
03/02:30am 7.2 3.5 2.3 71 2.0 NW 11 15 6 8 1019.7 1019.7 0.2
03/02:00am 8.5 3.1 2.3 65 2.6 WSW 20 32 11 17 1019.8 1019.8 0.2
03/01:30am 8.5 3.2 2.1 64 2.7 WSW 19 24 10 13 1020.1 1020.1 0.2
03/01:00am 8.6 3.2 2.2 64 2.7 WSW 20 26 11 14 1019.9 1019.9 0.2
03/12:30am 8.8 2.6 2.4 64 2.7 WSW 24 30 13 16 1020.0 1020.0 0.2
03/12:00am 8.5 3.3 2.3 65 2.6 WSW 19 22 10 12 1020.3 1020.3 0.2
 
Date/Time
EST
Temp
°C
App
Temp
°C
Dew
Point
Rel
Hum
%
Delta-T
°C
Wind Press
QNH
hPa
Press
MSL
hPa
Rain
since 9 am
mm
Dir
 
Spd
km/h
Gust
km/h
Spd
kts
Gust
kts
02/11:30pm 8.4 3.0 2.4 66 2.5 WSW 20 24 11 13 1020.3 1020.3 0.2
02/11:00pm 8.5 2.0 2.5 66 2.5 WSW 26 35 14 19 1020.3 1020.3 0.2
02/10:30pm 8.7 0.9 2.7 66 2.5 SW 33 43 18 23 1020.2 1020.2 0.2
02/10:00pm 8.9 1.0 2.3 63 2.8 SW 33 43 18 23 1020.1 1020.1 0.2
02/09:30pm 8.8 2.3 2.6 65 2.6 SW 26 35 14 19 1020.4 1020.4 0.2
02/09:00pm 8.6 3.3 3.2 69 2.3 SW 20 30 11 16 1020.4 1020.4 0.2
02/08:30pm 9.0 2.3 3.6 69 2.3 SW 28 32 15 17 1020.1 1020.1 0.2
02/08:00pm 9.0 1.4 3.8 70 2.3 SSW 33 43 18 23 1020.0 1020.0 0.2
02/07:30pm 9.1 1.5 3.7 69 2.3 SSW 33 41 18 22 1019.7 1019.7 0.2
02/07:00pm 9.4 1.5 4.2 70 2.3 SSW 35 44 19 24 1019.5 1019.5 0.2
02/06:30pm 9.5 0.1 4.3 70 2.3 SSW 43 52 23 28 1019.2 1019.2 0.2
02/06:00pm 9.3 2.2 5.3 76 1.8 SSW 32 39 17 21 1018.9 1018.9 0.2
02/05:30pm 9.5 1.3 4.9 73 2.1 SSW 37 46 20 25 1018.6 1018.6 0.2
02/05:00pm 9.5 1.0 5.3 75 1.9 SSW 39 44 21 24 1018.2 1018.2 0.2
02/04:30pm 9.2 1.2 5.8 79 1.6 SSW 37 44 20 24 1017.9 1017.9 0.0
02/04:00pm 9.4 -0.8 7.0 85 1.1 SSW 50 61 27 33 1017.4 1017.4 0.0
02/03:54pm 9.9 1.2 6.1 77 1.8 SSW 41 61 22 33 1017.2 1017.2 0.0
02/03:30pm 10.3 1.7 4.9 69 2.4 SSW 39 44 21 24 1017.3 1017.3 0.0
02/03:00pm 9.9 1.8 5.1 72 2.2 SSW 37 44 20 24 1017.1 1017.1 0.0
02/02:30pm 9.8 1.0 5.6 75 1.9 SSW 41 48 22 26 1017.0 1017.0 0.0
02/02:00pm 10.7 3.2 4.6 66 2.7 SSW 33 43 18 23 1016.6 1016.6 0.0
02/01:53pm 10.7 2.5 4.6 66 2.7 S 37 43 20 23 1016.5 1016.5 0.0
02/01:30pm 11.9 5.2 3.7 57 3.7 SW 28 37 15 20 1016.6 1016.6 0.0
02/01:00pm 11.2 3.2 3.7 60 3.3 SSW 35 44 19 24 1016.7 1016.7 0.0
02/12:30pm 11.2 4.5 3.5 59 3.4 SSW 28 41 15 22 1016.9 1016.9 0.0
02/12:00pm 11.5 4.1 4.0 60 3.3 SSW 32 39 17 21 1017.1 1017.1 0.0
02/11:30am 11.1 3.4 3.6 60 3.3 SW 33 41 18 22 1017.1 1017.1 0.0
02/11:00am 10.7 2.9 3.0 59 3.3 SSW 33 43 18 23 1017.1 1017.1 0.0
02/10:30am 10.4 3.3 3.7 63 2.9 SSW 30 39 16 21 1017.0 1017.0 0.0
02/10:00am 10.1 1.9 2.9 61 3.1 SSW 35 48 19 26 1016.6 1016.6 0.0
02/09:30am 9.7 2.1 3.0 63 2.9 SW 32 39 17 21 1016.6 1016.6 0.0
02/09:00am 9.7 2.2 3.7 66 2.6 SSW 32 37 17 20 1016.3 1016.3 5.6
02/08:30am 9.4 1.4 3.8 68 2.4 SSW 35 43 19 23 1016.0 1016.0 5.6
02/08:00am 9.0 2.0 4.0 71 2.2 SW 30 35 16 19 1015.9 1015.9 5.6
02/07:30am 8.9 1.4 3.7 70 2.3 SSW 32 37 17 20 1015.5 1015.5 5.6
02/07:00am 8.9 1.4 3.5 69 2.3 SW 32 35 17 19 1015.1 1015.1 5.6
02/06:30am 9.4 1.4 3.8 68 2.4 SSW 35 41 19 22 1014.7 1014.7 5.6
02/06:00am 9.5 1.4 3.3 65 2.7 SSW 35 41 19 22 1014.2 1014.2 5.6
02/05:30am 9.5 0.8 4.3 70 2.3 SSW 39 44 21 24 1013.8 1013.8 5.6
02/05:00am 9.7 1.1 4.7 71 2.2 SSW 39 43 21 23 1013.3 1013.3 5.6
02/04:30am 9.7 2.0 5.3 74 2.0 SSW 35 43 19 23 1012.8 1012.8 5.6
02/04:00am 9.6 1.8 5.0 73 2.1 SSW 35 43 19 23 1012.3 1012.3 5.6
02/03:30am 9.2 1.8 5.2 76 1.8 SSW 33 39 18 21 1012.0 1012.0 5.6
02/03:00am 9.3 1.5 4.9 74 2.0 SW 35 41 19 22 1011.8 1011.8 5.6
02/02:30am 9.1 2.3 5.1 76 1.8 SSW 30 35 16 19 1011.7 1011.7 5.6
02/02:00am 9.2 2.0 5.8 79 1.6 SSW 33 39 18 21 1011.5 1011.5 5.6
02/01:30am 8.9 2.6 5.6 80 1.5 SSW 28 35 15 19 1011.7 1011.7 5.6
02/01:00am 9.0 2.6 5.4 78 1.6 SSW 28 33 15 18 1011.4 1011.4 5.6
02/12:30am 9.0 1.7 5.4 78 1.6 SSW 33 41 18 22 1011.2 1011.2 5.6
02/12:00am 8.4 0.8 5.7 83 1.2 SSW 35 46 19 25 1010.9 1010.9 5.6
 
Date/Time
EST
Temp
°C
App
Temp
°C
Dew
Point
Rel
Hum
%
Delta-T
°C
Wind Press
QNH
hPa
Press
MSL
hPa
Rain
since 9 am
mm
Dir
 
Spd
km/h
Gust
km/h
Spd
kts
Gust
kts
01/11:47pm 9.3 1.9 6.6 83 1.3 SSW 35 52 19 28 1010.7 1010.7 5.0
01/11:30pm 9.0 3.6 6.4 84 1.2 S 24 32 13 17 1010.6 1010.6 5.0
01/11:00pm 8.8 1.7 6.3 84 1.2 SSW 33 43 18 23 1010.3 1010.3 4.8
01/10:30pm 10.1 3.9 6.1 76 1.9 SSW 28 35 15 19 1010.1 1010.1 4.2
01/10:00pm 9.8 2.8 6.0 77 1.8 S 32 41 17 22 1009.5 1009.5 4.2
01/09:30pm 9.6 2.1 6.1 79 1.6 SSW 35 41 19 22 1009.2 1009.2 4.2
01/09:00pm 9.7 2.3 6.6 81 1.5 S 35 43 19 23 1009.1 1009.1 4.2
01/08:30pm 10.0 1.4 6.7 80 1.5 SSW 41 48 22 26 1008.2 1008.2 4.2
01/08:00pm 9.8 1.9 7.7 87 1.0 SSW 39 48 21 26 1007.4 1007.4 4.2
01/07:30pm 9.4 0.8 8.0 91 0.7 SSW 43 50 23 27 1006.9 1006.9 4.2
01/07:00pm 9.6 1.4 8.0 90 0.8 SSW 41 46 22 25 1006.5 1006.5 4.2
01/06:30pm 9.8 1.3 8.6 92 0.6 SSW 43 50 23 27 1005.9 1005.9 4.2
01/06:00pm 9.8 -0.1 8.4 91 0.7 SSW 50 59 27 32 1005.3 1005.3 4.2
01/05:30pm 9.9 1.2 8.5 91 0.7 SSW 44 50 24 27 1004.1 1004.1 4.0
01/05:00pm 10.0 0.6 8.8 92 0.6 SSW 48 56 26 30 1003.8 1003.8 3.6
01/04:30pm 10.3 1.7 8.9 91 0.7 SSW 44 54 24 29 1003.2 1003.2 3.0
01/04:00pm 10.3 0.9 8.9 91 0.7 SSW 48 57 26 31 1002.5 1002.5 2.4
01/03:30pm 10.4 2.1 9.2 92 0.6 SSW 43 52 23 28 1002.2 1002.2 1.6
01/03:00pm 10.6 3.9 9.5 93 0.6 SSW 35 43 19 23 1002.1 1002.1 1.2
01/02:55pm 10.6 3.5 9.4 92 0.6 SSW 37 43 20 23 1002.0 1002.0 1.0
01/02:34pm 11.0 5.4 8.8 86 1.1 WSW 28 61 15 33 1001.8 1001.8 0.0
01/02:30pm 11.6 6.3 8.6 82 1.5 WSW 26 61 14 33 1002.3 1002.3 0.0
01/02:28pm 12.2 5.8 8.5 78 1.8 SW 32 61 17 33 1002.2 1002.2 0.0
01/02:25pm 13.9 5.3 8.7 71 2.6 W 44 54 24 29 1001.7 1001.7 0.0
01/02:22pm 14.3 7.7 8.7 69 2.8 NW 33 57 18 31 1001.4 1001.4 0.0
01/02:00pm 14.7 6.3 9.1 69 2.9 NNW 43 54 23 29 1000.6 1000.6 0.0
01/01:49pm 14.7 5.8 9.1 69 2.9 NNW 46 65 25 35 1000.6 1000.6 0.0
01/01:30pm 14.9 4.0 8.8 67 3.1 NNW 56 69 30 37 1000.4 1000.4 0.0
01/01:12pm 15.2 4.0 8.2 63 3.5 NNW 57 78 31 42 999.9 999.9 0.0
01/01:00pm 14.9 4.8 9.1 68 3.0 NNW 52 65 28 35 1000.4 1000.4 0.0
01/12:36pm 15.1 5.7 8.8 66 3.2 N 48 69 26 37 1000.4 1000.4 0.0
01/12:30pm 15.1 5.0 9.0 67 3.1 N 52 65 28 35 1000.7 1000.7 0.0
01/12:00pm 15.4 4.4 8.6 64 3.5 N 56 69 30 37 1000.7 1000.7 0.0
01/11:30am 15.4 5.7 9.1 66 3.2 NNW 50 65 27 35 1001.3 1001.3 0.0
01/11:00am 15.7 5.4 8.2 61 3.8 N 52 59 28 32 1001.3 1001.3 0.0
01/10:30am 14.5 9.0 9.1 70 2.8 N 28 37 15 20 1002.1 1002.1 0.0
01/10:00am 14.3 9.4 9.9 75 2.3 N 26 32 14 17 1002.8 1002.8 0.0
01/09:30am 14.1 10.1 9.1 72 2.5 N 20 30 11 16 1003.4 1003.4 0.0
01/09:00am 13.4 10.9 9.6 78 2.0 N 13 15 7 8 1004.3 1004.3 0.0
01/08:30am 13.3 11.9 9.7 79 1.8 NNW 7 9 4 5 1004.5 1004.5 0.0
01/08:00am 13.0 10.8 9.3 78 1.9 N 11 15 6 8 1004.5 1004.5 0.0
01/07:30am 12.9 9.6 9.5 80 1.7 N 17 22 9 12 1004.5 1004.5 0.0
01/07:00am 13.2 8.7 8.7 74 2.3 N 22 26 12 14 1004.8 1004.8 0.0
01/06:30am 13.1 9.1 9.2 77 2.0 N 20 22 11 12 1005.0 1005.0 0.0
01/06:00am 13.1 9.8 9.5 79 1.8 N 17 20 9 11 1005.3 1005.3 0.0
01/05:30am 12.9 9.3 9.7 81 1.6 N 19 20 10 11 1005.2 1005.2 0.0
01/05:00am 13.0 8.8 9.6 80 1.7 N 22 24 12 13 1005.5 1005.5 0.0
01/04:30am 13.2 8.5 9.3 77 2.0 N 24 32 13 17 1005.7 1005.7 0.0
01/04:00am 13.1 8.9 9.7 80 1.7 N 22 24 12 13 1005.8 1005.8 0.0
01/03:30am 13.0 8.7 9.4 79 1.8 N 22 26 12 14 1006.1 1006.1 0.0
01/03:00am 13.0 7.6 9.4 79 1.8 N 28 33 15 18 1006.2 1006.2 0.0
01/02:30am 13.1 7.3 9.4 78 1.9 N 30 33 16 18 1006.6 1006.6 0.0
01/02:00am 13.4 7.6 9.3 76 2.1 NNW 30 33 16 18 1007.5 1007.5 0.0
01/01:30am 13.6 8.6 9.5 76 2.1 N 26 32 14 17 1007.9 1007.9 0.0
01/01:00am 13.7 7.3 9.4 75 2.2 N 33 39 18 21 1007.9 1007.9 0.0
01/12:30am 13.9 7.7 9.3 74 2.3 N 32 39 17 21 1008.1 1008.1 0.0
01/12:00am 13.8 7.1 9.8 77 2.1 N 35 39 19 21 1008.2 1008.2 0.0
 
Date/Time
EST
Temp
°C
App
Temp
°C
Dew
Point
Rel
Hum
%
Delta-T
°C
Wind Press
QNH
hPa
Press
MSL
hPa
Rain
since 9 am
mm
Dir
 
Spd
km/h
Gust
km/h
Spd
kts
Gust
kts
31/11:30pm 13.8 7.5 9.8 77 2.1 N 33 37 18 20 1008.3 1008.3 0.0
31/11:00pm 13.6 8.4 10.4 81 1.7 N 28 32 15 17 1009.0 1009.0 0.0
31/10:30pm 13.8 7.3 10.4 80 1.8 N 35 44 19 24 1009.5 1009.5 0.0
31/10:00pm 14.3 6.4 9.5 73 2.5 N 41 48 22 26 1009.6 1009.6 0.0
31/09:30pm 14.4 9.0 9.4 72 2.6 N 28 35 15 19 1010.3 1010.3 0.0
31/09:00pm 14.4 8.6 9.4 72 2.6 N 30 35 16 19 1010.4 1010.4 0.0
31/08:30pm 14.5 8.7 9.5 72 2.6 N 30 33 16 18 1010.4 1010.4 0.0
31/08:00pm 14.2 7.9 9.8 75 2.3 N 33 37 18 20 1010.5 1010.5 0.0
31/07:30pm 14.4 8.6 9.4 72 2.6 N 30 33 16 18 1010.7 1010.7 0.0
31/07:00pm 14.3 9.8 9.9 75 2.3 N 24 28 13 15 1010.9 1010.9 0.0
31/06:30pm 14.0 10.0 10.4 79 1.9 NNW 22 24 12 13 1011.0 1011.0 0.0
31/06:00pm 14.7 10.5 9.7 72 2.6 N 22 26 12 14 1011.0 1011.0 0.0
31/05:30pm 14.7 10.0 10.5 76 2.2 N 26 30 14 16 1011.0 1011.0 0.0
31/05:00pm 15.4 9.7 9.7 69 3.0 N 30 35 16 19 1010.7 1010.7 0.0
31/04:30pm 15.5 10.0 10.5 72 2.6 N 30 32 16 17 1010.8 1010.8 0.0
31/04:00pm 15.0 10.8 11.2 78 2.0 N 24 28 13 15 1011.3 1011.3 0.0
31/03:30pm 15.9 12.5 11.1 73 2.6 N 20 24 11 13 1011.4 1011.4 0.0
31/03:00pm 15.6 11.8 11.2 75 2.4 N 22 24 12 13 1011.7 1011.7 0.0
31/02:30pm 16.7 12.4 10.8 68 3.2 N 24 28 13 15 1011.9 1011.9 0.0
31/02:00pm 16.3 12.0 10.8 70 2.9 N 24 26 13 14 1012.2 1012.2 0.0
31/01:30pm 15.7 11.3 10.5 71 2.7 N 24 26 13 14 1012.4 1012.4 0.0
31/01:00pm 16.6 11.8 10.2 66 3.4 N 26 28 14 15 1012.6 1012.6 0.0
31/12:30pm 15.5 11.2 10.7 73 2.5 N 24 28 13 15 1013.3 1013.3 0.0
31/12:00pm 15.4 11.3 10.0 70 2.8 N 22 26 12 14 1014.0 1014.0 0.0
31/11:30am 15.1 10.2 10.1 72 2.6 N 26 30 14 16 1014.4 1014.4 0.0
31/11:00am 14.8 10.3 10.2 74 2.4 N 24 30 13 16 1014.8 1014.8 0.0
31/10:30am 14.1 10.7 9.1 72 2.5 N 17 20 9 11 1015.4 1015.4 0.0
31/10:00am 13.0 9.8 8.3 73 2.3 NNW 15 19 8 10 1016.0 1016.0 0.0
31/09:30am 12.8 8.7 7.9 72 2.4 NNW 19 26 10 14 1016.3 1016.3 0.0
31/09:00am 12.6 6.3 8.9 78 1.9 N 32 37 17 20 1016.2 1016.2 0.0
31/08:30am 12.0 5.3 7.5 74 2.2 N 32 39 17 21 1016.4 1016.4 0.0
31/08:00am 11.8 5.0 7.5 75 2.1 N 33 35 18 19 1016.6 1016.6 0.0
31/07:30am 11.8 4.5 7.3 74 2.2 N 35 41 19 22 1016.4 1016.4 0.0
31/07:00am 11.5 4.6 7.4 76 2.0 N 33 41 18 22 1016.6 1016.6 0.0
31/06:30am 11.2 3.2 7.5 78 1.8 N 39 46 21 25 1016.4 1016.4 0.0
31/06:00am 11.0 3.4 7.5 79 1.7 N 37 43 20 23 1016.6 1016.6 0.0
31/05:30am 11.0 3.3 6.9 76 1.9 N 37 44 20 24 1016.8 1016.8 0.0
31/05:00am 11.2 3.5 6.9 75 2.0 N 37 43 20 23 1016.8 1016.8 0.0
31/04:30am 11.1 2.9 6.6 74 2.1 N 39 44 21 24 1017.1 1017.1 0.0
31/04:00am 11.2 3.8 6.7 74 2.1 N 35 43 19 23 1017.1 1017.1 0.0
31/03:30am 11.1 3.8 7.4 78 1.8 N 35 43 19 23 1017.6 1017.6 0.0
31/03:00am 10.8 4.0 7.7 81 1.5 N 33 39 18 21 1018.2 1018.2 0.0

Other Formats:

Comma delimited format used in spreadsheet applications
http://www.bom.gov.au/fwo/IDT60801/IDT60801.95988.axf

JavaScript Object Notation format (JSON) in row-major order
http://www.bom.gov.au/fwo/IDT60801/IDT60801.95988.json